Ketchikan, AK

2:18 AM AKST on January 21, 2019 (GMT -0900)
Ketchikan International

Weather History for PAKT - December, 2018

Change the Weather History Date:

Thursday, December 6, 2018

  Actual Average Record
Temperature  
Mean Temperature 30 °F -  
Max Temperature 33 °F 41 °F 55 °F (1959)
Min Temperature 26 °F 30 °F 9 °F (1958)
Degree Days  
Heating Degree Days 36    
Moisture  
Dew Point 27 °F    
Average Humidity 90    
Maximum Humidity 96    
Minimum Humidity 79    
Precipitation  
Precipitation 0.00 in - - ()
Sea Level Pressure  
Sea Level Pressure 30.14 in    
Wind  
Wind Speed 3 mph (SSE)    
Max Wind Speed 9 mph    
Max Gust Speed -    
Visibility 7 miles    
Events Fog    
Averages and records for this station are not official NWS values.
T = Trace of Precipitation, MM = Missing Value Source: NWS Daily Summary

Daily Weather History Graph

Daily Weather History Graph

Search for Another Location

Airport or City:

Astronomy

Dec. 06, 2018 Rise Set
Actual Time 7:57 AM AKST 3:17 PM AKST
Civil Twilight 7:12 AM AKST 4:03 PM AKST
Nautical Twilight 6:25 AM AKST 4:50 PM AKST
Astronomical Twilight 5:40 AM AKST 5:35 PM AKST
Moon 6:59 AM AKST (12/6) 3:29 PM AKST (12/6)
Length of Visible Light 8h 50m
Length of Day
7h 20m
Waning Crescent, 0% of the Moon is Illuminated
Dec 6
Waning Crescent
Dec 6
New
Dec 15
First Quarter
Dec 22
Full
Dec 29
Last Quarter

Hourly Weather History & Observations

Time (AKST) Temp. Windchill Dew Point Humidity Pressure Visibility Wind Dir Wind Speed Gust Speed Precip Events Conditions
12:03 AM 26.1 °F - 24.1 °F 92% 30.19 in 10.0 mi Calm Calm - N/A   Mostly Cloudy
12:24 AM 28.0 °F - 27.0 °F 96% 30.19 in 0.5 mi Calm Calm - N/A Fog Light Freezing Fog
12:49 AM 27.0 °F - 26.1 °F 96% 30.19 in 0.5 mi Calm Calm - N/A Fog Light Freezing Fog
1:01 AM 28.0 °F - 26.1 °F 92% 30.19 in 10.0 mi Calm Calm - N/A   Overcast
1:38 AM 26.1 °F 21.9 °F 24.1 °F 92% 30.18 in 9.0 mi SSW 3.5 mph - N/A   Scattered Clouds
1:53 AM 26.1 °F - 24.1 °F 92% 30.19 in 10.0 mi Calm Calm - N/A   Partly Cloudy
2:10 AM 26.1 °F - 23.0 °F 88% 30.19 in 2.5 mi Calm Calm - N/A   Mostly Cloudy
2:38 AM 28.0 °F 20.8 °F 26.1 °F 92% 30.19 in 0.5 mi SSE 6.9 mph - N/A Fog Light Freezing Fog
2:42 AM 28.0 °F 21.7 °F 27.0 °F 96% 30.19 in 0.2 mi South 5.8 mph - N/A Fog Light Freezing Fog
2:53 AM 28.9 °F 23.9 °F 27.0 °F 92% 30.20 in 0.2 mi South 4.6 mph - N/A Fog Light Freezing Fog
3:48 AM 30.2 °F 24.3 °F 28.4 °F 93% 30.18 in 0.2 mi SE 5.8 mph - N/A Fog Light Freezing Fog
3:53 AM 30.0 °F 24.1 °F 28.9 °F 96% 30.19 in 0.2 mi SE 5.8 mph - N/A Fog Light Freezing Fog
4:10 AM 28.9 °F 22.8 °F 28.0 °F 96% 30.18 in 0.2 mi SE 5.8 mph - N/A Fog Light Freezing Fog
4:53 AM 28.9 °F 20.4 °F 27.0 °F 92% 30.17 in 2.0 mi SE 9.2 mph - N/A   Overcast
5:36 AM 30.0 °F 25.2 °F 28.9 °F 96% 30.15 in 2.0 mi SE 4.6 mph - N/A   Overcast
5:53 AM 28.9 °F 23.9 °F 27.0 °F 92% 30.16 in 10.0 mi ESE 4.6 mph - N/A   Scattered Clouds
6:05 AM 30.0 °F 25.2 °F 28.0 °F 92% 30.15 in 10.0 mi SE 4.6 mph - N/A   Clear
6:53 AM 30.0 °F 26.5 °F 28.0 °F 92% 30.16 in 10.0 mi South 3.5 mph - N/A   Clear
7:53 AM 30.0 °F 25.2 °F 27.0 °F 88% 30.16 in 10.0 mi SSE 4.6 mph - N/A   Clear
8:53 AM 28.9 °F 23.9 °F 28.0 °F 96% 30.16 in 10.0 mi South 4.6 mph - N/A   Clear
9:18 AM 30.0 °F 25.2 °F 28.0 °F 92% 30.15 in 10.0 mi SSE 4.6 mph - N/A   Partly Cloudy
9:53 AM 30.2 °F 24.3 °F 28.4 °F 93% 30.16 in 10.0 mi SSE 5.8 mph - N/A   Partly Cloudy
10:53 AM 32.0 °F 25.6 °F 30.0 °F 92% 30.15 in 10.0 mi ESE 6.9 mph - N/A   Scattered Clouds
11:53 AM 33.1 °F 27.7 °F 30.0 °F 89% 30.13 in 10.0 mi SE 5.8 mph - N/A   Clear
12:53 PM 33.1 °F 30.0 °F 30.0 °F 89% 30.12 in 10.0 mi ESE 3.5 mph - N/A   Clear
1:53 PM 33.1 °F 30.0 °F 30.0 °F 89% 30.12 in 10.0 mi South 3.5 mph - N/A   Scattered Clouds
2:53 PM 33.8 °F 29.6 °F 28.4 °F 81% 30.10 in 10.0 mi ESE 4.6 mph - N/A   Mostly Cloudy
3:53 PM 33.8 °F 29.6 °F 28.4 °F 81% 30.10 in 10.0 mi SSW 4.6 mph - N/A   Overcast
4:53 PM 32.0 °F - 26.1 °F 79% 30.07 in 10.0 mi Calm Calm - N/A   Scattered Clouds
5:53 PM 30.0 °F 26.5 °F 26.1 °F 85% 30.05 in 10.0 mi SE 3.5 mph - N/A   Clear
6:53 PM 30.0 °F 26.5 °F 26.1 °F 85% 30.04 in 10.0 mi SSE 3.5 mph - N/A   Clear
7:53 PM 28.9 °F 22.8 °F 24.1 °F 82% 30.03 in 10.0 mi South 5.8 mph - N/A   Clear
9:53 PM 26.1 °F 21.9 °F 24.1 °F 92% 30.01 in 10.0 mi SE 3.5 mph - N/A   Clear
10:53 PM 30.0 °F 26.5 °F 26.1 °F 85% 30.01 in 10.0 mi SSE 3.5 mph - N/A   Clear
11:53 PM 30.0 °F - 25.0 °F 82% 30.01 in 10.0 mi Calm Calm - N/A   Clear